| time (UTC) | temp F | wind direction | speed MPH | gust MPH | rain 1hr in | rain 24hr in | rain mn in | humidity % | barometer mb |
| 20260509133047 | 51 | 278 | 0.0 | 1.0 | 0.03 | 0.10 | 0.05 | 96 | 989.3 |
| 20260509132037 | 51 | 229 | 0.0 | 2.0 | 0.02 | 0.09 | 0.04 | 96 | 989.3 |
| 20260509131107 | 51 | 283 | 1.0 | 2.0 | 0.02 | 0.09 | 0.04 | 96 | 989.3 |
| 20260509130017 | 51 | 274 | 0.0 | 1.0 | 0.01 | 0.08 | 0.03 | 96 | 989.3 |
| 20260509125108 | 51 | 223 | 0.0 | 1.0 | 0.00 | 0.07 | 0.02 | 96 | 989.4 |
| 20260509104606 | 49 | 0.0 | 0.0 | 0.00 | 0.07 | 0.02 | 97 | 989.1 | |
| 20260509103555 | 49 | 0.0 | 0.0 | 0.00 | 0.07 | 0.02 | 97 | 989.1 | |
| 20260509102546 | 48 | 0.0 | 0.0 | 0.00 | 0.07 | 0.02 | 96 | 989.1 | |
| 20260509101554 | 48 | 0.0 | 0.0 | 0.00 | 0.07 | 0.02 | 96 | 989.0 | |
| 20260509100545 | 48 | 0.0 | 0.0 | 0.01 | 0.07 | 0.02 | 96 | 989.1 | |
| 20260509095621 | 48 | 0.0 | 0.0 | 0.01 | 0.07 | 0.02 | 96 | 989.2 | |
| 20260509094626 | 48 | 0.0 | 0.0 | 0.01 | 0.07 | 0.02 | 96 | 989.4 | |
| 20260509093555 | 48 | 0.0 | 0.0 | 0.01 | 0.07 | 0.02 | 96 | 989.5 | |
| 20260509092545 | 48 | 0.0 | 0.0 | 0.01 | 0.07 | 0.02 | 96 | 989.6 | |
| 20260509091535 | 48 | 302 | 0.0 | 1.0 | 0.01 | 0.07 | 0.02 | 96 | 989.6 |
| 20260509090525 | 48 | 0.0 | 0.0 | 0.00 | 0.06 | 0.01 | 96 | 989.7 | |
| 20260509085515 | 48 | 0.0 | 0.0 | 0.00 | 0.06 | 0.01 | 96 | 989.8 | |
| 20260509084626 | 48 | 0.0 | 0.0 | 0.00 | 0.06 | 0.01 | 96 | 989.9 | |
| 20260509083556 | 48 | 0.0 | 0.0 | 0.00 | 0.06 | 0.01 | 96 | 990.0 | |
| 20260509082546 | 48 | 0.0 | 0.0 | 0.00 | 0.06 | 0.01 | 96 | 990.1 | |
| 20260509081536 | 48 | 0.0 | 0.0 | 0.01 | 0.06 | 0.01 | 96 | 989.9 | |
| 20260509080526 | 48 | 0.0 | 0.0 | 0.01 | 0.06 | 0.01 | 96 | 990.2 | |
| 20260509075516 | 48 | 0.0 | 0.0 | 0.01 | 0.06 | 0.01 | 96 | 990.1 | |
| 20260509074632 | 48 | 0.0 | 0.0 | 0.01 | 0.06 | 0.01 | 96 | 990.0 | |
| 20260509073557 | 48 | 278 | 0.0 | 1.0 | 0.01 | 0.06 | 0.01 | 96 | 990.2 |
| 20260509072552 | 48 | 0.0 | 0.0 | 0.01 | 0.06 | 0.01 | 96 | 990.2 | |
| 20260509071557 | 48 | 302 | 1.0 | 2.0 | 0.00 | 0.05 | 0.00 | 96 | 990.1 |
| 20260509070528 | 48 | 0.0 | 0.0 | 0.00 | 0.05 | 0.00 | 96 | 990.1 | |
| 20260509065537 | 48 | 0.0 | 0.0 | 0.00 | 0.05 | 0.00 | 96 | 990.2 | |
| 20260509064607 | 48 | 0.0 | 0.0 | 0.00 | 0.05 | 0.00 | 96 | 990.2 | |
| 20260509063559 | 48 | 0.0 | 0.0 | 0.00 | 0.05 | 0.00 | 96 | 990.4 | |
| 20260509062629 | 48 | 0.0 | 0.0 | 0.00 | 0.05 | 0.00 | 96 | 990.3 | |
| 20260509061537 | 48 | 0.0 | 0.0 | 0.00 | 0.05 | 0.00 | 96 | 990.6 | |
| 20260509060548 | 48 | 285 | 0.0 | 1.0 | 0.00 | 0.05 | 0.00 | 96 | 990.7 |
| 20260509055518 | 48 | 0.0 | 0.0 | 0.00 | 0.05 | 0.00 | 96 | 991.0 | |
| 20260509054609 | 48 | 0.0 | 0.0 | 0.00 | 0.05 | 0.00 | 96 | 991.1 | |
| 20260509053559 | 48 | 0.0 | 0.0 | 0.00 | 0.05 | 0.00 | 96 | 991.3 | |
| 20260509052548 | 48 | 0.0 | 0.0 | 0.00 | 0.05 | 0.00 | 96 | 991.4 | |
| 20260509051538 | 48 | 0.0 | 0.0 | 0.00 | 0.05 | 0.00 | 96 | 991.2 | |
| 20260509050550 | 48 | 0.0 | 0.0 | 0.00 | 0.05 | 0.00 | 96 | 991.5 | |
| 20260509045525 | 49 | 0.0 | 0.0 | 0.00 | 0.05 | 0.00 | 96 | 991.6 | |
| 20260509044610 | 49 | 0.0 | 0.0 | 0.00 | 0.05 | 0.00 | 96 | 991.7 | |
| 20260509043600 | 49 | 0.0 | 0.0 | 0.00 | 0.05 | 0.00 | 96 | 991.8 | |
| 20260509042752 | 49 | 0.0 | 0.0 | 0.00 | 0.05 | 0.00 | 96 | 992.0 | |
| 20260509041540 | 49 | 0.0 | 0.0 | 0.01 | 0.05 | 0.00 | 96 | 992.1 | |
| 20260509040531 | 49 | 0.0 | 0.0 | 0.01 | 0.05 | 0.00 | 95 | 992.2 | |
| 20260509035540 | 49 | 0.0 | 0.0 | 0.01 | 0.05 | 0.05 | 95 | 992.2 | |
| 20260509034612 | 49 | 0.0 | 0.0 | 0.01 | 0.05 | 0.05 | 95 | 992.4 | |
| 20260509033601 | 49 | 0.0 | 0.0 | 0.01 | 0.05 | 0.05 | 95 | 992.4 | |
| 20260509032046 | 49 | 0.0 | 0.0 | 0.02 | 0.05 | 0.05 | 95 | 992.5 | |
| 20260509031541 | 49 | 0.0 | 0.0 | 0.01 | 0.04 | 0.04 | 95 | 992.7 | |
| 20260509030532 | 49 | 0.0 | 0.0 | 0.01 | 0.04 | 0.04 | 95 | 992.8 | |
| 20260509025521 | 50 | 0.0 | 0.0 | 0.01 | 0.04 | 0.04 | 95 | 992.9 | |
| 20260509024613 | 50 | 0.0 | 0.0 | 0.02 | 0.04 | 0.04 | 95 | 993.2 | |
| 20260509023602 | 50 | 0.0 | 0.0 | 0.02 | 0.04 | 0.04 | 95 | 993.3 | |
| 20260509022552 | 50 | 0.0 | 0.0 | 0.01 | 0.03 | 0.03 | 94 | 993.3 | |
| 20260509021543 | 50 | 0.0 | 0.0 | 0.01 | 0.03 | 0.03 | 94 | 993.2 | |
| 20260509020533 | 50 | 0.0 | 0.0 | 0.01 | 0.03 | 0.03 | 94 | 993.0 | |
| 20260509015523 | 50 | 0.0 | 0.0 | 0.02 | 0.03 | 0.03 | 94 | 992.8 | |
| 20260509014612 | 50 | 0.0 | 0.0 | 0.01 | 0.02 | 0.02 | 94 | 992.6 | |
| 20260509013603 | 50 | 0.0 | 0.0 | 0.01 | 0.02 | 0.02 | 94 | 992.0 | |
| 20260509012553 | 50 | 0.0 | 0.0 | 0.01 | 0.02 | 0.02 | 94 | 991.6 | |
| 20260509011543 | 50 | 0.0 | 0.0 | 0.01 | 0.02 | 0.02 | 93 | 991.7 | |
| 20260509010533 | 50 | 0.0 | 0.0 | 0.01 | 0.02 | 0.02 | 93 | 991.5 | |
| 20260509005524 | 50 | 0.0 | 0.0 | 0.00 | 0.01 | 0.01 | 93 | 991.4 | |
| 20260509004614 | 50 | 0.0 | 0.0 | 0.00 | 0.01 | 0.01 | 93 | 991.5 | |
| 20260509003604 | 50 | 0.0 | 0.0 | 0.00 | 0.01 | 0.01 | 93 | 991.6 | |
| 20260509002554 | 50 | 0.0 | 0.0 | 0.00 | 0.01 | 0.01 | 93 | 991.3 | |
| 20260509001544 | 50 | 0.0 | 0.0 | 0.00 | 0.01 | 0.01 | 92 | 991.1 | |
| 20260509000534 | 51 | 0.0 | 0.0 | 0.00 | 0.01 | 0.01 | 92 | 991.1 | |
| 20260508235529 | 51 | 0.0 | 0.0 | 0.00 | 0.01 | 0.01 | 92 | 991.1 | |
| 20260508234615 | 51 | 0.0 | 0.0 | 0.00 | 0.01 | 0.01 | 91 | 990.8 | |
| 20260508233606 | 51 | 0.0 | 0.0 | 0.00 | 0.01 | 0.01 | 91 | 990.9 | |
| 20260508232554 | 51 | 0.0 | 0.0 | 0.00 | 0.01 | 0.01 | 92 | 990.8 | |
| 20260508231545 | 51 | 290 | 0.0 | 1.0 | 0.00 | 0.01 | 0.01 | 91 | 990.8 |
| 20260508230535 | 51 | 0.0 | 0.0 | 0.00 | 0.01 | 0.01 | 91 | 991.1 | |
| 20260508225605 | 51 | 0.0 | 0.0 | 0.00 | 0.01 | 0.01 | 91 | 991.1 | |
| 20260508224616 | 51 | 0.0 | 0.0 | 0.00 | 0.01 | 0.01 | 90 | 991.2 |